sat.trackr.live / text

‹ back to catalog

STARLINK-35629

NORAD 66127 · 2025-237P

PAYLOAD ACTIVE UNKNOWN

§ Identity

Operator
Country
US
Launch date
2025-10-22
Launch site
AFWTR
Launch vehicle
Mass (kg)
RCS (m²)

Purposes: comms

External: N2YO · Heavens-Above · Gunter

§ Orbital elements

Epoch: 2026-05-25T00:34:05.507904Z

Period
94.11 min
Inclination
53.1586°
Eccentricity
0.0000974
Mean motion
15.30195465 rev/d
Perigee alt
474.6 km
Apogee alt
475.9 km
Semi-major
6,853.4 km
B*
3.6861e-4
RAAN
45.3361°
Arg perigee
84.0414°
Mean anomaly
276.0697°
Rev number
3,429

§ Raw data

STARLINK-356291 66127U 25237P   26145.02367486  .00010572  00000+0  36861-3 0  99962 66127  53.1586  45.3361 0000974  84.0414 276.0697 15.30195465 34299

JSON: /api/v1/satellites/66127 · /tle

For live sub-satellite position, see the globe view (requires WebGL).

§ Visibility from observer

Set your observer location to see the next 7 days of passes ≥ 10°. The values pass through the URL so the page stays shareable.

No JS? Fill the form by hand. The geolocation button needs JavaScript.